• In Uzbekistan
  • List of Countries
  • For 7 days
  • Water Temperature
  • Satellite Maps
  • Weather Map
  • Weather Widgets
  • user-avatar
    Login

    Hourly Weather Salgotarjan

    Today, 18 February, Sunday

    Time Temperature Precipitation Wind Pressure Humidity
    00:00 -2°C° 0.5 mm 2 mps 734 mmHg 93%
    01:00 -2°C° 0.5 mm 2 mps 734 mmHg 93%
    02:00 -2°C° 0.4 mm 2 mps 734 mmHg 93%
    03:00 -2°C° 0.4 mm 2 mps 734 mmHg 93%
    04:00 -2°C° 0.4 mm 2 mps 734 mmHg 94%
    05:00 -2°C° 0.2 mm 2 mps 734 mmHg 93%
    06:00 -2°C° 0.2 mm 2 mps 735 mmHg 93%
    07:00 -2°C° 0.2 mm 2 mps 735 mmHg 92%
    08:00 -2°C° 0 mm 2 mps 735 mmHg 88%
    09:00 -1°C° 0 mm 2 mps 736 mmHg 84%
    10:00 +1°C° 0 mm 2 mps 736 mmHg 80%
    11:00 +2°C° 0 mm 2 mps 736 mmHg 77%
    12:00 +3°C° 0 mm 2 mps 736 mmHg 73%
    13:00 +4°C° 0 mm 2 mps 736 mmHg 70%
    14:00 +3°C° 0 mm 2 mps 736 mmHg 72%
    15:00 +4°C° 0 mm 1 mps 736 mmHg 74%
    16:00 +4°C° 0 mm 1 mps 736 mmHg 77%
    17:00 +3°C° 0 mm 1 mps 737 mmHg 79%
    18:00 +1°C° 0 mm 1 mps 737 mmHg 81%
    19:00 0°C° 0 mm 1 mps 737 mmHg 83%
    20:00 -2°C° 0 mm 2 mps 737 mmHg 83%
    21:00 -3°C° 0 mm 2 mps 737 mmHg 84%
    22:00 -3°C° 0 mm 2 mps 737 mmHg 84%
    23:00 -4°C° 0 mm 2 mps 737 mmHg 84%

    Tomorrow, 19 February, Monday

    Time Temperature Precipitation Wind Pressure Humidity
    00:00 -4°C° 0 mm 2 mps 737 mmHg 84%
    01:00 -5°C° 0 mm 2 mps 737 mmHg 84%
    02:00 -5°C° 0 mm 2 mps 737 mmHg 83%
    03:00 -5°C° 0 mm 2 mps 737 mmHg 82%
    04:00 -5°C° 0 mm 2 mps 736 mmHg 81%
    05:00 -5°C° 0 mm 2 mps 736 mmHg 80%
    06:00 -5°C° 0 mm 2 mps 736 mmHg 79%
    07:00 -5°C° 0 mm 2 mps 736 mmHg 78%
    08:00 -4°C° 0 mm 2 mps 736 mmHg 72%
    09:00 -2°C° 0 mm 2 mps 736 mmHg 66%
    10:00 -1°C° 0 mm 2 mps 736 mmHg 60%
    11:00 +1°C° 0 mm 2 mps 736 mmHg 58%
    12:00 +2°C° 0 mm 2 mps 735 mmHg 56%
    13:00 +3°C° 0 mm 2 mps 735 mmHg 53%
    14:00 +2°C° 0 mm 2 mps 735 mmHg 57%
    15:00 +2°C° 0 mm 2 mps 734 mmHg 60%
    16:00 +2°C° 0 mm 2 mps 734 mmHg 64%
    17:00 +1°C° 0 mm 2 mps 734 mmHg 67%
    18:00 -2°C° 0 mm 2 mps 734 mmHg 71%
    19:00 -3°C° 0 mm 2 mps 734 mmHg 74%
    20:00 -3°C° 0 mm 2 mps 734 mmHg 74%
    21:00 -3°C° 0 mm 2 mps 734 mmHg 74%
    22:00 -3°C° 0 mm 2 mps 734 mmHg 74%
    23:00 -3°C° 0 mm 2 mps 733 mmHg 74%

    Day after tomorrow, 20 February, Tuesday

    Time Temperature Precipitation Wind Pressure Humidity
    00:00 -3°C° 0 mm 2 mps 733 mmHg 73%
    01:00 -3°C° 0 mm 2 mps 733 mmHg 72%
    02:00 -3°C° 0 mm 2 mps 733 mmHg 72%
    03:00 -3°C° 0 mm 2 mps 732 mmHg 71%
    04:00 -3°C° 0 mm 2 mps 732 mmHg 71%
    05:00 -3°C° 0 mm 2 mps 732 mmHg 71%
    06:00 -3°C° 0 mm 2 mps 731 mmHg 71%
    07:00 -2°C° 0 mm 2 mps 731 mmHg 71%
    08:00 -2°C° 0 mm 2 mps 731 mmHg 70%
    09:00 -1°C° 0 mm 3 mps 731 mmHg 70%
    10:00 0°C° 0 mm 3 mps 731 mmHg 69%
    11:00 0°C° 0.1 mm 3 mps 731 mmHg 69%
    12:00 +1°C° 0.1 mm 3 mps 731 mmHg 69%
    13:00 +1°C° 0.1 mm 3 mps 730 mmHg 69%
    14:00 +1°C° 0.4 mm 3 mps 730 mmHg 72%
    15:00 +1°C° 0.4 mm 3 mps 730 mmHg 75%
    16:00 +2°C° 0.4 mm 2 mps 729 mmHg 78%
    17:00 +1°C° 0.6 mm 2 mps 729 mmHg 80%
    18:00 +1°C° 0.6 mm 2 mps 729 mmHg 82%
    19:00 +1°C° 0.6 mm 2 mps 729 mmHg 84%
    20:00 -1°C° 0.5 mm 2 mps 729 mmHg 84%
    21:00 -1°C° 0.5 mm 3 mps 729 mmHg 85%
    22:00 -1°C° 0.5 mm 3 mps 729 mmHg 85%
    23:00 -1°C° 0.3 mm 3 mps 729 mmHg 86%

    21 February, Wednesday

    Time Temperature Precipitation Wind Pressure Humidity
    00:00 -1°C° 0.3 mm 2 mps 729 mmHg 87%
    01:00 -1°C° 0.3 mm 2 mps 729 mmHg 88%
    02:00 -1°C° 0.2 mm 2 mps 729 mmHg 89%
    03:00 -1°C° 0.2 mm 2 mps 729 mmHg 89%
    04:00 -1°C° 0.2 mm 2 mps 729 mmHg 90%
    05:00 -1°C° 0.2 mm 2 mps 729 mmHg 90%
    06:00 -1°C° 0.2 mm 2 mps 729 mmHg 91%
    07:00 -1°C° 0.2 mm 2 mps 729 mmHg 91%
    08:00 -1°C° 0.1 mm 2 mps 729 mmHg 91%
    09:00 +2°C° 0.1 mm 1 mps 729 mmHg 90%
    10:00 +3°C° 0.1 mm 1 mps 730 mmHg 89%
    11:00 +3°C° 0.1 mm 1 mps 730 mmHg 88%
    12:00 +4°C° 0.1 mm 1 mps 729 mmHg 87%
    13:00 +4°C° 0.1 mm 1 mps 729 mmHg 85%
    14:00 +4°C° 0 mm 1 mps 729 mmHg 87%
    15:00 +4°C° 0 mm 1 mps 729 mmHg 88%
    16:00 +4°C° 0 mm 1 mps 729 mmHg 90%
    17:00 +3°C° 0 mm 1 mps 729 mmHg 90%
    18:00 +2°C° 0 mm 1 mps 729 mmHg 91%
    19:00 -1°C° 0 mm 2 mps 729 mmHg 91%
    20:00 -1°C° 0 mm 2 mps 729 mmHg 90%
    21:00 -2°C° 0 mm 2 mps 729 mmHg 89%
    22:00 -2°C° 0 mm 2 mps 729 mmHg 87%
    23:00 -2°C° 0 mm 2 mps 729 mmHg 86%

    22 February, Thursday

    Time Temperature Precipitation Wind Pressure Humidity
    00:00 -4°C° 0 mm 3 mps 729 mmHg 85%
    01:00 -4°C° 0 mm 3 mps 729 mmHg 83%
    02:00 -4°C° 0 mm 3 mps 728 mmHg 83%
    03:00 -4°C° 0 mm 3 mps 728 mmHg 82%
    04:00 -4°C° 0 mm 3 mps 727 mmHg 81%
    05:00 -4°C° 0.1 mm 4 mps 727 mmHg 81%
    06:00 -3°C° 0.1 mm 4 mps 727 mmHg 81%
    07:00 -3°C° 0.1 mm 4 mps 727 mmHg 80%
    08:00 -2°C° 0 mm 4 mps 727 mmHg 79%
    09:00 -1°C° 0 mm 4 mps 727 mmHg 77%
    10:00 0°C° 0 mm 4 mps 726 mmHg 75%
    11:00 +1°C° 0 mm 5 mps 726 mmHg 74%
    12:00 +2°C° 0 mm 5 mps 726 mmHg 74%
    13:00 +2°C° 0 mm 5 mps 725 mmHg 73%
    14:00 +2°C° 0 mm 5 mps 725 mmHg 75%
    15:00 +3°C° 0 mm 4 mps 725 mmHg 77%
    16:00 +1°C° 0 mm 4 mps 725 mmHg 78%
    17:00 +1°C° 0.4 mm 4 mps 724 mmHg 80%
    18:00 0°C° 0.4 mm 4 mps 724 mmHg 81%
    19:00 0°C° 0.4 mm 3 mps 724 mmHg 83%
    20:00 0°C° 0.4 mm 3 mps 724 mmHg 84%
    21:00 0°C° 0.4 mm 3 mps 724 mmHg 85%
    22:00 0°C° 0.4 mm 3 mps 724 mmHg 86%
    23:00 +1°C° 0.4 mm 2 mps 724 mmHg 88%

    23 February, Friday

    Time Temperature Precipitation Wind Pressure Humidity
    00:00 +1°C° 0.4 mm 2 mps 724 mmHg 89%
    01:00 -1°C° 0.4 mm 2 mps 724 mmHg 91%
    02:00 -1°C° 0.5 mm 2 mps 724 mmHg 92%
    03:00 +1°C° 0.5 mm 1 mps 723 mmHg 92%
    04:00 +1°C° 0.5 mm 1 mps 723 mmHg 93%
    05:00 +1°C° 0.5 mm 1 mps 723 mmHg 94%
    06:00 +1°C° 0.5 mm 1 mps 723 mmHg 94%
    07:00 +1°C° 0.5 mm 1 mps 723 mmHg 95%
    08:00 +1°C° 0.1 mm 1 mps 724 mmHg 94%
    09:00 +2°C° 0.1 mm 1 mps 724 mmHg 94%
    10:00 +2°C° 0.1 mm 1 mps 724 mmHg 93%
    11:00 +3°C° 0.1 mm 1 mps 724 mmHg 92%
    12:00 +3°C° 0.1 mm 1 mps 724 mmHg 91%
    13:00 +4°C° 0.1 mm 1 mps 724 mmHg 90%
    14:00 +3°C° 0.3 mm 1 mps 723 mmHg 90%
    15:00 +3°C° 0.3 mm 1 mps 723 mmHg 91%
    16:00 +3°C° 0.3 mm 1 mps 723 mmHg 91%
    17:00 +1°C° 0.4 mm 2 mps 723 mmHg 91%
    18:00 +1°C° 0.4 mm 2 mps 723 mmHg 90%
    19:00 -1°C° 0.4 mm 2 mps 723 mmHg 90%
    20:00 -2°C° 0.4 mm 2 mps 723 mmHg 89%
    21:00 -2°C° 0.4 mm 3 mps 724 mmHg 88%
    22:00 -4°C° 0.4 mm 3 mps 724 mmHg 86%
    23:00 -4°C° 0.2 mm 3 mps 724 mmHg 85%
    Show more